Location: ??????????
(42.1626°N, 44.1160°E)
Time: 12:10:30
(UTC+00:00)

Lacrosse 4 Rocket - Pass Details

Date: 03 March 2021
Orbit: 537 x 620 km, 68.0° (Epoch: 20 April)

Event Time Altitude Azimuth Distance (km) Brightness Sun altitude
Rises 17:33:30 0° 223° (SW) 2,815 5.2 -29.6°
Reaches altitude 10° 17:35:47 10° 229° (SW) 1,931 4.4 -30.0°
Enters shadow 17:37:47 25° 244° (WSW) 1,229 3.4 -30.3°
